FALCON HEAVY R/B, 55265

Orbit data source: Space-Track

FALCON HEAVY R/B, 55265 is space debris in GEO originally from a launch on Sun, 15 Jan 2023 UTC launched from the Air Force Eastern Test Range (AFETR). Debris objects in space refer to the collection of defunct objects orbiting the Earth. Examples of debris include non-operational satellites, rocket bodies, and fragments generated from explosions, collisions, or faulty payload assembly.

Not visible in the next 10 days
Identifier
55265, 2023-008C
Orbit
GEO
Country
Flag of USUS
Related business
Manufacturer
SpaceX
Mission
Spacecraft
Bus & Motor
F9ST2, Unknown motor
Mass
~4,000 kg wet, ~4,000 kg dry
Launch date (UTC)
2023-01-15 (3 years ago)
Launch vehicle
Unknown
Launch site
Air Force Eastern Test Range (AFETR)
Object type
Payload
Rocket body
Debris
Shape & HBR
Cyl, Unknown HBR
Radar Cross Section
49.816 m²

Expand to show TLE details & history
Last TLE update: 3 days ago

TLE from 3 days ago
0 FALCON HEAVY R/B
1 55265U 23008C   26170.37132832 -.00000099  00000-0  00000+0 0  9999
2 55265   2.8811  75.6446 0054336  76.7572 283.4665  1.03134341  7913
Epoch: 2026-06-19T08:54Z
TLE epoch observation values (Epoch: 2026-06-19T08:54:42.766Z)
Latitude
0.00001°
Longitude
33.99857°
Altitude
34,950.238 km
Speed
3.108 km/s
True Right ascension
05h 01m 06s
True Declination
0° 00' 00"
Sunlit
Object was in daylight at epoch
Visualization orbit readout
Latitude
Unknown
Longitude
Unknown
Altitude
Unknown
Speed
Unknown
Apparent Right ascension
Unknown
Apparent Declination
Unknown
Sunlit
N/A
Visualization observer readout
Local Sidereal Time
21:40:04
Azimuth
Unknown
Elevation
Unknown
Doppler factor
Unknown
Orbital elements
Apogee altitude
35,228.674 km
Perigee altitude
34,778.968 km
Semi-major axis
41,381.958 km
Eccentricity
0.00543
Inclination
2.8811°
RAAN
75.6446°
Arg. of periapsis
76.7572°
True anomaly
282.86003°
Mean anomaly
283.4665°
Eccentric anomaly
283.16336°
Mean motion
0.25783 °/min
Orbital period
1,396.29 mins
BSTAR
0
Loading maneuver chart data...
Computing Atmospheric mass density...
Loading historical data...
Loading historical data...
Loading historical data...
Loading historical data...
Loading historical data...
Loading historical data...
Loading historical data...
Other satellites on launch #8 in the year 2023 (2023-01-15 UTC)

Documentation

Showing up to 5 results
|